Location: Bergfeld
(52.0500°N, 11.7833°E)
Time: 11:57:19
(UTC+00:00)

Cosmos 1805 Rocket - Pass Details

Date: 17 February 2020
Orbit: 607 x 629 km, 82.5° (Epoch: 08 April)

Event Time Altitude Azimuth Distance (km) Brightness Sun altitude
Rises 04:46:15 0° 349° (NNW) 2,883 6.9 -15.8°
Reaches altitude 10° 04:48:29 10° 349° (N) 1,973 6.0 -15.5°
Maximum altitude 04:52:52 90° 153° (SSE) 615 3.5 -14.8°
Drops below altitude 10° 04:57:11 10° 171° (S) 1,955 6.3 -14.1°
Sets 04:59:23 0° 171° (S) 2,855 7.1 -13.8°
